Home > Weather > Khan Yunis > Past weeks

Flag for Palestinian Territories Weather for the Past 2 Weeks in Khan Yunis, Gaza Strip, Palestinian Territories

Now
70 °F

Sunny.


Feels Like: 70 °F
Forecast: 53 / 72 °F
Wind: 5 mph from Northeast

Location: El Arish

Current Time: Feb 13, 2016 at 5:42:23 PM

Latest Report: Feb 13, 2016 at 4:00 PM


Visibility: 10 mi

Pressure: 30.04 "Hg

Humidity: 60%

Dew point: 55 °F

Location of Khan YunisLocation

Historic Weather in Khan Yunis — Graph

°F

Khan Yunis Temperature Yesterday

Maximum temperature yesterday: 72 °F (at 1:00 PM)
Minimum temperature yesterday: 43 °F (at 4:00 AM)
Average temperature yesterday: 55 °F

High & Low Weather Summary for the Past Weeks

 TemperatureHumidityPressure
High79 °F (Feb 4, 3:00 PM)100% (Jan 29, 8:00 PM)30.42 "Hg (Jan 29, 8:00 PM)
Low37 °F (Feb 9, 5:00 AM)21% (Feb 4, 3:00 PM)29.95 "Hg (Feb 5, 6:00 AM)
Average55 °F81%30.17 "Hg
* Reported Jan 29 5:00 PM — Feb 13 4:00 PM, Khan Yunis, Weather by CustomWeather, © 2016

Note: Actual official high and low records may vary slightly from our data, if they occured in-between our weather recording intervals... More about our weather records

Advertising

Khan Yunis Weather History for the Previous 24 Hours

 ConditionsComfort  
Time TempWeatherWind HumidityBarometerVisibility
4:00 PM
Sat, Feb 13
70 °FSunny.5 mph60%30.04 "Hg10 mi
3:00 PM72 °FSunny.5 mph57%30.04 "Hg10 mi
2:00 PM70 °FSunny.7 mph57%30.07 "Hg10 mi
1:00 PM72 °FSunny.5 mph50%30.07 "Hg10 mi
12:00 PM73 °FSunny.2 mph44%30.09 "Hg10 mi
11:00 AM72 °FSunny.No wind44%30.09 "Hg10 mi
10:00 AM66 °FSunny.No wind64%30.12 "Hg10 mi
9:00 AM59 °FSunny.3 mph82%30.12 "Hg10 mi
8:00 AM50 °FSunny.3 mph88%30.12 "Hg10 mi
7:00 AM43 °FSunny.2 mph100%30.12 "Hg10 mi
6:00 AM43 °FClear.3 mph100%30.12 "Hg10 mi
5:00 AM45 °FClear.No wind93%30.12 "Hg10 mi
4:00 AM45 °FClear.5 mph93%30.12 "Hg10 mi
3:00 AM46 °FClear.5 mph93%30.15 "Hg10 mi
2:00 AM46 °FClear.2 mph87%30.15 "Hg10 mi
1:00 AM46 °FClear.2 mph100%30.18 "Hg10 mi
12:00 AM48 °FClear.2 mph87%30.18 "Hg10 mi
11:00 PM
Fri, Feb 12
50 °FClear.No wind82%30.18 "Hg10 mi
10:00 PM50 °FClear.2 mph82%30.18 "Hg10 mi
9:00 PM52 °FClear.No wind77%30.18 "Hg10 mi
8:00 PM55 °FClear.No wind72%30.18 "Hg10 mi
7:00 PM55 °FClear.2 mph72%30.18 "Hg10 mi
6:00 PM61 °FClear.3 mph63%30.18 "Hg10 mi
5:00 PM64 °FSunny.7 mph60%30.18 "Hg10 mi
Weather by CustomWeather, © 2016

See weather overviewHow to use our weather pages